TimeCDT,TemperatureF,Dew PointF,Humidity,Sea Level PressureIn,VisibilityMPH,Wind Direction,Wind SpeedMPH,Gust SpeedMPH,PrecipitationIn,Events,Conditions,WindDirDegrees,DateUTC
12:15 AM,-9999,-9999,N/A,30.29,10.0,Calm,Calm,-,N/A,,Clear,0,2012-10-29 05:15:00
12:35 AM,-9999,-9999,N/A,30.29,10.0,ENE,3.5,-,N/A,,Clear,60,2012-10-29 05:35:00
1:15 AM,-9999,-9999,N/A,30.29,10.0,Calm,Calm,-,N/A,,Clear,0,2012-10-29 06:15:00
1:35 AM,-9999,-9999,N/A,30.28,10.0,East,3.5,-,N/A,,Clear,90,2012-10-29 06:35:00
1:55 AM,-9999,-9999,N/A,30.28,10.0,East,4.6,-,N/A,,Clear,90,2012-10-29 06:55:00
2:16 AM,-9999,-9999,N/A,30.27,10.0,East,3.5,-,N/A,,Clear,90,2012-10-29 07:16:00
2:35 AM,-9999,-9999,N/A,30.27,10.0,Calm,Calm,-,N/A,,Clear,0,2012-10-29 07:35:00
2:55 AM,-9999,-9999,N/A,30.27,10.0,ESE,3.5,-,N/A,,Clear,110,2012-10-29 07:55:00
3:15 AM,-9999,-9999,N/A,30.27,10.0,Calm,Calm,-,N/A,,Clear,0,2012-10-29 08:15:00
3:35 AM,-9999,-9999,N/A,30.27,10.0,Calm,Calm,-,N/A,,Scattered Clouds,0,2012-10-29 08:35:00
3:55 AM,-9999,-9999,N/A,30.27,10.0,Calm,Calm,-,N/A,,Mostly Cloudy,0,2012-10-29 08:55:00
4:15 AM,-9999,-9999,N/A,30.27,10.0,Calm,Calm,-,N/A,,Mostly Cloudy,0,2012-10-29 09:15:00
4:35 AM,-9999,-9999,N/A,30.27,10.0,ESE,4.6,-,N/A,,Mostly Cloudy,120,2012-10-29 09:35:00
4:55 AM,-9999,-9999,N/A,30.27,10.0,Calm,Calm,-,N/A,,Scattered Clouds,0,2012-10-29 09:55:00
5:36 AM,-9999,-9999,N/A,30.27,10.0,East,3.5,-,N/A,,Overcast,100,2012-10-29 10:36:00
5:55 AM,-9999,-9999,N/A,30.27,10.0,East,3.5,-,N/A,,Overcast,100,2012-10-29 10:55:00
6:35 AM,-9999,-9999,N/A,30.28,10.0,ESE,4.6,-,N/A,,Partly Cloudy,110,2012-10-29 11:35:00
6:55 AM,-9999,-9999,N/A,30.28,10.0,East,3.5,-,N/A,,Mostly Cloudy,90,2012-10-29 11:55:00
7:15 AM,-9999,-9999,N/A,30.29,10.0,NE,3.5,-,N/A,,Overcast,50,2012-10-29 12:15:00
7:35 AM,-9999,-9999,N/A,30.29,10.0,East,3.5,-,N/A,,Overcast,90,2012-10-29 12:35:00
7:55 AM,-9999,-9999,N/A,30.30,10.0,Calm,Calm,-,N/A,,Overcast,0,2012-10-29 12:55:00
8:15 AM,-9999,-9999,N/A,30.31,10.0,Calm,Calm,-,N/A,,Mostly Cloudy,0,2012-10-29 13:15:00
8:35 AM,-9999,-9999,N/A,30.31,10.0,ESE,5.8,-,N/A,,Clear,110,2012-10-29 13:35:00
8:55 AM,-9999,-9999,N/A,30.32,10.0,SE,4.6,-,N/A,,Mostly Cloudy,130,2012-10-29 13:55:00
9:35 AM,-9999,-9999,N/A,30.34,10.0,SE,3.5,-,N/A,,Unknown,140,2012-10-29 14:35:00
9:55 AM,-9999,-9999,N/A,30.34,10.0,Calm,Calm,-,N/A,,Partly Cloudy,0,2012-10-29 14:55:00
10:15 AM,-9999,-9999,N/A,30.34,10.0,SE,3.5,-,N/A,,Clear,140,2012-10-29 15:15:00
10:36 AM,-9999,-9999,N/A,30.34,10.0,ESE,4.6,-,N/A,,Clear,110,2012-10-29 15:36:00
11:15 AM,-9999,-9999,N/A,30.32,10.0,SE,6.9,-,N/A,,Clear,130,2012-10-29 16:15:00
12:55 PM,-9999,-9999,N/A,30.29,10.0,SSW,3.5,-,N/A,,Clear,210,2012-10-29 17:55:00
1:15 PM,-9999,-9999,N/A,30.27,10.0,Calm,Calm,-,N/A,,Clear,0,2012-10-29 18:15:00
1:55 PM,-9999,-9999,N/A,30.25,10.0,Calm,Calm,-,N/A,,Clear,0,2012-10-29 18:55:00
2:15 PM,-9999,-9999,N/A,30.24,10.0,SW,5.8,-,N/A,,Clear,220,2012-10-29 19:15:00
2:35 PM,-9999,-9999,N/A,30.23,10.0,Calm,Calm,-,N/A,,Clear,0,2012-10-29 19:35:00
3:35 PM,-9999,-9999,N/A,30.20,10.0,NW,3.5,-,N/A,,Clear,310,2012-10-29 20:35:00
3:55 PM,-9999,-9999,N/A,30.19,10.0,West,3.5,-,N/A,,Clear,280,2012-10-29 20:55:00
4:15 PM,-9999,-9999,N/A,30.19,10.0,Calm,Calm,-,N/A,,Clear,0,2012-10-29 21:15:00
4:35 PM,-9999,-9999,N/A,30.18,10.0,Calm,Calm,-,N/A,,Clear,0,2012-10-29 21:35:00
5:15 PM,-9999,-9999,N/A,30.17,10.0,SSE,3.5,-,N/A,,Clear,160,2012-10-29 22:15:00
5:35 PM,-9999,-9999,N/A,30.16,10.0,South,3.5,-,N/A,,Clear,170,2012-10-29 22:35:00
5:56 PM,-9999,-9999,N/A,30.16,10.0,South,3.5,-,N/A,,Clear,180,2012-10-29 22:56:00
6:15 PM,-9999,-9999,N/A,30.16,10.0,Calm,Calm,-,N/A,,Clear,0,2012-10-29 23:15:00
6:35 PM,-9999,-9999,N/A,30.16,10.0,SSE,3.5,-,N/A,,Clear,150,2012-10-29 23:35:00
7:15 PM,-9999,-9999,N/A,30.16,10.0,Calm,Calm,-,N/A,,Mostly Cloudy,0,2012-10-30 00:15:00
7:35 PM,-9999,-9999,N/A,30.16,10.0,Calm,Calm,-,N/A,,Overcast,0,2012-10-30 00:35:00
7:56 PM,-9999,-9999,N/A,30.16,10.0,Calm,Calm,-,N/A,,Mostly Cloudy,0,2012-10-30 00:56:00
8:15 PM,-9999,-9999,N/A,30.16,10.0,Calm,Calm,-,N/A,,Clear,0,2012-10-30 01:15:00
8:35 PM,-9999,-9999,N/A,30.16,10.0,SE,4.6,-,N/A,,Clear,140,2012-10-30 01:35:00
8:56 PM,-9999,-9999,N/A,30.16,10.0,SE,4.6,-,N/A,,Clear,140,2012-10-30 01:56:00
9:15 PM,-9999,-9999,N/A,30.15,10.0,SE,4.6,-,N/A,,Clear,140,2012-10-30 02:15:00
9:56 PM,-9999,-9999,N/A,30.15,10.0,SSE,4.6,-,N/A,,Clear,150,2012-10-30 02:56:00
10:15 PM,-9999,-9999,N/A,30.14,10.0,South,4.6,-,N/A,,Clear,170,2012-10-30 03:15:00
10:35 PM,-9999,-9999,N/A,30.14,10.0,SSE,3.5,-,N/A,,Clear,160,2012-10-30 03:35:00
11:15 PM,-9999,-9999,N/A,30.14,10.0,East,4.6,-,N/A,,Clear,90,2012-10-30 04:15:00
11:35 PM,-9999,-9999,N/A,30.14,10.0,East,4.6,-,N/A,,Clear,100,2012-10-30 04:35:00
11:55 PM,-9999,-9999,N/A,30.13,10.0,Calm,Calm,-,N/A,,Clear,0,2012-10-30 04:55:00